Regional Weather Roundup
Issued by NWS Charleston, WV

Home | Current Version | Previous Version | Text Only | Print | Product List | Glossary On
Versions: 1 2 3 4 5 6 7 8 9 10 11 12 13 14 15 16 17 18 19 20 21 22 23 24 25 26 27 28 29 30 31 32 33 34 35 36 37 38 39 40 41 42 43 44 45 46 47 48 49 50
000
ASUS41 KRLX 211410
RWRRLX
West Virginia Regional Weather Roundup
National Weather Service Charleston WV
900 AM EST SUN JAN 21 2018

Note: "fair" indicates few or no clouds below 12,000 feet with no
significant weather and/or obstructions to visibility.

WVZ003-211500-
Northern Panhandle of West Virginia

CITY           SKY/WX    TMP DP  RH WIND       PRES   REMARKS
WHEELING       CLOUDY    42  41  96 S9        30.13S
$$

WVZ009-211500-
Northwest West Virginia

CITY           SKY/WX    TMP DP  RH WIND       PRES   REMARKS
PARKERSBURG    CLOUDY    45  39  79 S6        30.18R
$$

WVZ006-211500-
Western West Virginia

CITY           SKY/WX    TMP DP  RH WIND       PRES   REMARKS
HUNTINGTON     CLOUDY    49  37  63 S8        30.17R
$$

WVZ015-211500-
West Central West Virginia

CITY           SKY/WX    TMP DP  RH WIND       PRES   REMARKS
CHARLESTON     CLOUDY    50  40  68 S6        30.18S
$$

WVZ022-031-211500-
North Central West Virginia

CITY           SKY/WX    TMP DP  RH WIND       PRES   REMARKS
CLARKSBURG     CLOUDY    48  43  82 S5        30.18R
MORGANTOWN     CLOUDY    46  42  86 S5        30.17S
$$

WVZ025-035-042-045-211500-
Southern West Virginia

CITY           SKY/WX    TMP DP  RH WIND       PRES   REMARKS
BECKLEY        CLOUDY    44  39  82 SW9       30.22R
LOGAN          CLOUDY    46  37  71 S5        30.20S
BLUEFIELD      CLOUDY    45  34  65 W7        30.23R
LEWISBURG      CLOUDY    44  38  80 SW3       30.23R
$$

WVZ047-211500-
Northern Mountains of West Virginia

CITY           SKY/WX    TMP DP  RH WIND       PRES   REMARKS
ELKINS         CLOUDY    47  40  76 S5        30.19R
$$

WVZ052-211500-
Eastern Panhandle of West Virginia

CITY           SKY/WX    TMP DP  RH WIND       PRES   REMARKS
MARTINSBURG    CLOUDY    44  35  70 CALM      30.16R
PETERSBURG     CLOUDY    53  40  61 W3        30.17R
$$



USA.gov is the U.S. government's official web portal to all federal, state and local government web resources and services.